N2NET Weather Reports


Display with metric or nautical units.
time (UTC)temp
F
wind
direction
speed
MPH
gust
MPH
rain 1hr
in
rain 24hr
in
rain mn
in
humidity
%
barometer
mb
20260904231602 67 0 0.0 1.0 0.00 0.14 0.14 67 1011.9
20260904230113 69 280 0.0 4.0 0.00 0.14 0.14 73 1011.9
20260904224622 72 302 3.0 11.0 0.00 0.14 0.14 66 1012.0
20260904223110 73 0 0.0 5.0 0.00 0.14 0.14 68 1011.9
20260904221628 74 332 4.0 13.0 0.00 0.14 0.14 61 1011.9
20260904220109 75 0 0.0 4.0 0.00 0.14 0.14 68 1011.6
20260904214609 75 0 1.0 9.0 0.00 0.14 0.14 65 1011.5
20260904213108 74 346 3.0 7.0 0.00 0.14 0.14 63 1011.5
20260904211606 75 0 0.0 8.0 0.00 0.14 0.14 61 1011.5
20260904210123 76 215 1.0 12.0 0.00 0.14 0.14 59 1011.5
20260904204605 77 321 1.0 10.0 0.00 0.14 0.14 53 1011.6
20260904203105 77 265 5.0 12.0 0.00 0.14 0.14 54 1011.7
20260904201630 77 325 6.0 11.0 0.00 0.14 0.14 53 1011.7
20260904200121 78 314 1.0 15.0 0.00 0.14 0.14 57 1011.8
20260904194605 77 289 4.0 12.0 0.00 0.14 0.14 55 1011.9
20260904193113 78 309 2.0 8.0 0.00 0.14 0.14 54 1011.9
20260904191605 78 321 3.0 10.0 0.00 0.14 0.14 55 1011.9
20260904184609 78 38 3.0 12.0 0.00 0.14 0.14 54 1012.0
20260904183105 78 312 4.0 13.0 0.00 0.14 0.14 55 1012.1
20260904181603 78 300 4.0 11.0 0.00 0.14 0.14 56 1012.3
20260904180101 78 329 4.0 9.0 0.00 0.14 0.14 53 1012.4
20260904174604 78 277 2.0 13.0 0.00 0.14 0.14 54 1012.5
20260904173108 78 266 3.0 12.0 0.00 0.14 0.14 56 1012.3
20260904171623 77 264 6.0 18.0 0.00 0.14 0.14 59 1012.5
20260904170108 77 324 2.0 5.0 0.00 0.14 0.14 56 1012.4
20260904164604 77 289 4.0 16.0 0.00 0.14 0.14 58 1012.2
20260904163101 76 12 1.0 13.0 0.00 0.14 0.14 59 1012.7
20260904161611 75 288 2.0 12.0 0.00 0.14 0.14 60 1012.9
20260904160107 75 308 2.0 14.0 0.00 0.14 0.14 60 1013.1
20260904154605 75 311 4.0 14.0 0.00 0.14 0.14 60 1013.1
20260904153115 75 319 4.0 12.0 0.00 0.14 0.14 63 1013.2
20260904151559 75 338 3.0 9.0 0.00 0.14 0.14 61 1013.4
20260904150104 75 218 0.0 4.0 0.00 0.14 0.14 64 1013.2
20260904144615 74 295 1.0 6.0 0.00 0.14 0.14 64 1013.4
20260904143123 73 300 3.0 15.0 0.00 0.14 0.14 65 1013.4
20260904141604 72 283 6.0 9.0 0.00 0.14 0.14 67 1013.3
20260904140105 71 0 0.0 12.0 0.00 0.14 0.14 67 1013.4
20260904134606 72 298 2.0 13.0 0.00 0.14 0.14 66 1013.3
20260904133110 72 56 5.0 13.0 0.00 0.14 0.14 63 1013.2
20260904131605 71 222 1.0 5.0 0.00 0.14 0.14 100 1013.2
20260904130109 69 0 1.0 5.0 0.00 0.14 0.14 100 1013.3
20260904124602 68 222 2.0 4.0 0.00 0.14 0.14 100 1013.1
20260904123101 66 205 1.0 4.0 0.00 0.14 0.14 100 1013.0
20260904121603 65 228 0.0 3.0 0.00 0.14 0.14 100 1012.8
20260904120109 64 238 1.0 4.0 0.00 0.14 0.14 100 1012.7
20260904114608 64 263 0.0 4.0 0.00 0.14 0.14 100 1012.7
20260904113109 63 229 0.0 5.0 0.00 0.14 0.14 100 1012.5
20260904111604 62 0 0.0 2.0 0.00 0.14 0.14 100 1012.4
20260904110101 61 238 0.0 3.0 0.01 0.14 0.14 100 1012.2
20260904104604 59 0 0.0 2.0 0.01 0.14 0.14 100 1012.3
20260904103104 59 0 0.0 0.0 0.01 0.14 0.14 100 1012.3
20260904101607 60 0 0.0 0.0 0.01 0.14 0.14 100 1012.2
20260904100100 60 0 0.0 3.0 0.00 0.13 0.13 100 1012.1
20260904094604 60 0 0.0 0.0 0.00 0.13 0.13 100 1012.3
20260904093110 61 0 0.0 0.0 0.00 0.13 0.13 100 1012.3
20260904091605 61 0 0.0 0.0 0.00 0.13 0.13 100 1012.3
20260904084604 62 0 0.0 0.0 0.00 0.15 0.13 100 1012.0
20260904083106 62 0 0.0 0.0 0.00 0.15 0.13 100 1011.9
20260904081602 62 0 0.0 0.0 0.00 0.15 0.13 100 1011.7
20260904080119 63 0 0.0 0.0 0.00 0.15 0.13 100 1011.7
20260904074558 63 0 0.0 1.0 0.00 0.26 0.13 100 1011.4
20260904073113 63 0 0.0 0.0 0.00 0.26 0.13 100 1011.7
20260904071604 63 0 0.0 0.0 0.02 0.26 0.13 100 1011.9
20260904064558 63 0 0.0 1.0 0.11 0.26 0.13 100 1012.2
20260904063113 63 0 0.0 0.0 0.12 0.26 0.13 100 1012.4
20260904061604 63 0 0.0 0.0 0.11 0.24 0.11 100 1012.7
20260904060104 63 0 0.0 0.0 0.05 0.18 0.05 100 1012.9
20260904054600 63 0 0.0 0.0 0.02 0.19 0.02 100 1013.2
20260904053120 62 0 0.0 0.0 0.01 0.18 0.01 100 1012.9
20260904051604 62 0 0.0 0.0 0.00 0.17 0.00 100 1012.9
20260904050100 62 0 0.0 0.0 0.00 0.17 0.00 100 1013.0
20260904044614 62 0 0.0 0.0 0.00 0.29 0.00 100 1013.0
20260904043109 62 0 0.0 0.0 0.00 0.29 0.00 100 1013.0
20260904041559 63 0 0.0 0.0 0.00 0.29 0.00 100 1013.1
20260904040059 63 0 0.0 0.0 0.00 0.29 0.00 100 1013.4
20260904034605 63 0 0.0 0.0 0.00 0.56 0.29 100 1013.4
20260904033101 63 0 0.0 0.0 0.00 0.56 0.29 100 1013.3
20260904031556 63 0 0.0 0.0 0.00 0.56 0.29 100 1013.5
20260904024604 63 0 0.0 0.0 0.00 0.56 0.29 100 1013.6
20260904023102 64 0 0.0 0.0 0.00 0.56 0.29 100 1013.7
20260904021613 64 0 0.0 0.0 0.00 0.56 0.29 100 1014.0
20260904020058 65 0 0.0 0.0 0.00 0.56 0.29 100 1013.9
20260904014607 65 0 0.0 0.0 0.00 0.57 0.29 100 1014.1
20260904013121 66 0 0.0 0.0 0.00 0.57 0.29 100 1014.1
20260904011647 66 0 0.0 0.0 0.00 0.57 0.29 100 1014.0
20260904010101 67 0 0.0 0.0 0.00 0.57 0.29 100 1014.0
20260904004559 67 0 0.0 0.0 0.00 0.58 0.29 100 1014.1
20260904003105 68 0 0.0 0.0 0.00 0.58 0.29 100 1013.9
20260904001652 69 0 0.0 0.0 0.00 0.58 0.29 100 1013.8
20260904000109 70 0 0.0 0.0 0.00 0.58 0.29 100 1013.8
20260903234558 71 0 0.0 1.0 0.00 0.60 0.29 100 1013.7
20260903233110 72 0 0.0 0.0 0.00 0.60 0.29 100 1013.3